TimeCDT,TemperatureF,Dew PointF,Humidity,Sea Level PressureIn,VisibilityMPH,Wind Direction,Wind SpeedMPH,Gust SpeedMPH,PrecipitationIn,Events,Conditions,WindDirDegrees,DateUTC
12:15 AM,55.4,46.4,72,30.04,10.0,South,8.1,-,N/A,,Clear,170,2013-04-06 05:15:00
12:35 AM,55.4,46.4,72,30.02,10.0,South,11.5,-,N/A,,Clear,170,2013-04-06 05:35:00
12:55 AM,55.4,46.4,72,30.02,10.0,South,12.7,17.3,N/A,,Clear,170,2013-04-06 05:55:00
1:15 AM,55.4,44.6,67,30.02,10.0,South,10.4,-,N/A,,Clear,170,2013-04-06 06:15:00
1:35 AM,55.4,44.6,67,30.02,10.0,South,10.4,-,N/A,,Clear,170,2013-04-06 06:35:00
1:55 AM,55.4,44.6,67,30.01,10.0,South,10.4,-,N/A,,Clear,170,2013-04-06 06:55:00
2:15 AM,55.4,44.6,67,30.00,10.0,South,9.2,-,N/A,,Clear,170,2013-04-06 07:15:00
2:35 AM,53.6,44.6,72,30.00,10.0,South,9.2,-,N/A,,Clear,170,2013-04-06 07:35:00
2:55 AM,53.6,44.6,72,29.99,10.0,South,10.4,-,N/A,,Clear,170,2013-04-06 07:55:00
3:15 AM,53.6,44.6,72,29.98,10.0,South,9.2,-,N/A,,Clear,170,2013-04-06 08:15:00
3:35 AM,53.6,44.6,72,29.98,10.0,South,9.2,-,N/A,,Clear,170,2013-04-06 08:35:00
3:55 AM,53.6,44.6,72,29.98,10.0,South,8.1,-,N/A,,Clear,170,2013-04-06 08:55:00
4:15 AM,53.6,46.4,77,29.98,10.0,South,6.9,-,N/A,,Clear,180,2013-04-06 09:15:00
4:35 AM,53.6,46.4,77,29.97,10.0,South,10.4,16.1,N/A,,Clear,180,2013-04-06 09:35:00
4:55 AM,53.6,46.4,77,29.96,10.0,South,11.5,-,N/A,,Clear,170,2013-04-06 09:55:00
5:15 AM,53.6,46.4,77,29.95,10.0,South,13.8,-,N/A,,Clear,170,2013-04-06 10:15:00
5:35 AM,53.6,46.4,77,29.96,10.0,South,10.4,16.1,N/A,,Clear,180,2013-04-06 10:35:00
5:55 AM,53.6,44.6,72,29.96,10.0,South,10.4,18.4,N/A,,Clear,180,2013-04-06 10:55:00
6:15 AM,53.6,44.6,72,29.96,10.0,South,10.4,-,N/A,,Clear,180,2013-04-06 11:15:00
6:35 AM,53.6,44.6,72,29.97,10.0,South,11.5,-,N/A,,Clear,180,2013-04-06 11:35:00
6:55 AM,53.6,44.6,72,29.97,10.0,South,9.2,-,N/A,,Clear,180,2013-04-06 11:55:00
7:15 AM,51.8,44.6,76,29.96,10.0,South,11.5,-,N/A,,Clear,180,2013-04-06 12:15:00
7:35 AM,51.8,44.6,76,29.96,10.0,South,11.5,-,N/A,,Clear,180,2013-04-06 12:35:00
7:55 AM,53.6,44.6,72,29.96,10.0,South,12.7,17.3,N/A,,Clear,180,2013-04-06 12:55:00
8:15 AM,53.6,44.6,72,29.96,10.0,South,13.8,-,N/A,,Clear,180,2013-04-06 13:15:00
8:35 AM,53.6,44.6,72,29.97,10.0,South,12.7,17.3,N/A,,Clear,170,2013-04-06 13:35:00
8:55 AM,55.4,44.6,67,29.96,10.0,South,16.1,21.9,N/A,,Clear,180,2013-04-06 13:55:00
9:15 AM,57.2,44.6,63,29.97,10.0,South,18.4,23.0,N/A,,Clear,180,2013-04-06 14:15:00
9:35 AM,59.0,44.6,59,29.97,10.0,South,16.1,24.2,N/A,,Clear,190,2013-04-06 14:35:00
9:55 AM,60.8,44.6,55,29.97,10.0,SSW,12.7,24.2,N/A,,Clear,200,2013-04-06 14:55:00
10:15 AM,60.8,44.6,55,29.98,10.0,SSW,16.1,25.3,N/A,,Clear,200,2013-04-06 15:15:00
10:35 AM,62.6,44.6,52,29.97,10.0,South,15.0,24.2,N/A,,Clear,190,2013-04-06 15:35:00
10:55 AM,62.6,44.6,52,29.97,10.0,SSW,19.6,28.8,N/A,,Clear,200,2013-04-06 15:55:00
11:15 AM,64.4,44.6,49,29.97,10.0,South,18.4,25.3,N/A,,Clear,190,2013-04-06 16:15:00
11:35 AM,64.4,44.6,49,29.96,10.0,South,16.1,23.0,N/A,,Clear,180,2013-04-06 16:35:00
11:55 AM,66.2,44.6,46,29.97,10.0,South,16.1,29.9,N/A,,Clear,190,2013-04-06 16:55:00
12:15 PM,68.0,46.4,46,29.95,10.0,SSW,17.3,24.2,N/A,,Clear,200,2013-04-06 17:15:00
12:35 PM,68.0,48.2,49,29.97,10.0,SSW,17.3,21.9,N/A,,Clear,210,2013-04-06 17:35:00
12:55 PM,69.8,48.2,46,29.96,10.0,South,13.8,23.0,N/A,,Clear,180,2013-04-06 17:55:00
1:15 PM,69.8,50.0,49,29.94,10.0,South,15.0,20.7,N/A,,Clear,180,2013-04-06 18:15:00
1:35 PM,71.6,50.0,46,29.94,10.0,SSW,18.4,21.9,N/A,,Clear,200,2013-04-06 18:35:00
1:55 PM,71.6,50.0,46,29.94,10.0,SSW,12.7,20.7,N/A,,Clear,210,2013-04-06 18:55:00
2:15 PM,73.4,50.0,44,29.93,10.0,SSW,15.0,19.6,N/A,,Clear,200,2013-04-06 19:15:00
2:35 PM,73.4,50.0,44,29.92,10.0,SSW,18.4,24.2,N/A,,Clear,200,2013-04-06 19:35:00
2:55 PM,75.2,51.8,44,29.90,10.0,SSW,13.8,21.9,N/A,,Clear,200,2013-04-06 19:55:00
3:15 PM,75.2,50.0,41,29.89,10.0,SSW,12.7,24.2,N/A,,Clear,200,2013-04-06 20:15:00
3:35 PM,77.0,50.0,39,29.88,10.0,South,16.1,19.6,N/A,,Clear,190,2013-04-06 20:35:00
3:55 PM,77.0,50.0,39,29.87,10.0,South,12.7,20.7,N/A,,Clear,170,2013-04-06 20:55:00
4:15 PM,78.8,51.8,39,29.87,10.0,SSW,10.4,20.7,N/A,,Clear,200,2013-04-06 21:15:00
4:35 PM,77.0,51.8,41,29.86,10.0,South,10.4,17.3,N/A,,Clear,190,2013-04-06 21:35:00
4:55 PM,78.8,51.8,39,29.85,10.0,South,11.5,21.9,N/A,,Clear,180,2013-04-06 21:55:00
5:15 PM,78.8,51.8,39,29.85,10.0,South,16.1,21.9,N/A,,Clear,180,2013-04-06 22:15:00
5:35 PM,78.8,50.0,36,29.84,10.0,South,13.8,19.6,N/A,,Clear,170,2013-04-06 22:35:00
5:55 PM,78.8,51.8,39,29.85,10.0,South,13.8,18.4,N/A,,Clear,180,2013-04-06 22:55:00
6:15 PM,77.0,51.8,41,29.85,10.0,South,10.4,-,N/A,,Clear,170,2013-04-06 23:15:00
6:35 PM,77.0,51.8,41,29.85,10.0,South,10.4,-,N/A,,Clear,170,2013-04-06 23:35:00
6:55 PM,77.0,51.8,41,29.85,10.0,South,9.2,-,N/A,,Clear,170,2013-04-06 23:55:00
7:15 PM,75.2,51.8,44,29.85,10.0,South,11.5,-,N/A,,Clear,170,2013-04-07 00:15:00
7:35 PM,73.4,51.8,47,29.85,10.0,South,8.1,-,N/A,,Clear,170,2013-04-07 00:35:00
7:55 PM,71.6,51.8,50,29.85,10.0,South,8.1,-,N/A,,Clear,170,2013-04-07 00:55:00
8:15 PM,71.6,53.6,53,29.86,10.0,SSE,6.9,-,N/A,,Clear,160,2013-04-07 01:15:00
8:35 PM,69.8,53.6,56,29.86,10.0,SSE,6.9,-,N/A,,Clear,150,2013-04-07 01:35:00
8:55 PM,69.8,53.6,56,29.86,10.0,SSE,8.1,-,N/A,,Clear,160,2013-04-07 01:55:00
9:15 PM,68.0,53.6,60,29.86,10.0,SSE,9.2,-,N/A,,Clear,160,2013-04-07 02:15:00
9:35 PM,68.0,53.6,60,29.87,10.0,SSE,9.2,-,N/A,,Clear,160,2013-04-07 02:35:00
9:55 PM,68.0,53.6,60,29.87,10.0,SSE,8.1,-,N/A,,Clear,160,2013-04-07 02:55:00
10:15 PM,68.0,53.6,60,29.87,10.0,South,9.2,-,N/A,,Clear,170,2013-04-07 03:15:00
10:35 PM,68.0,53.6,60,29.87,10.0,SSE,8.1,-,N/A,,Clear,150,2013-04-07 03:35:00
10:55 PM,64.4,55.4,73,29.88,10.0,SSE,11.5,-,N/A,,Clear,160,2013-04-07 03:55:00
11:15 PM,64.4,55.4,73,29.88,10.0,SSE,9.2,-,N/A,,Clear,160,2013-04-07 04:15:00
11:35 PM,64.4,55.4,73,29.88,10.0,South,9.2,16.1,N/A,,Clear,170,2013-04-07 04:35:00
11:55 PM,64.4,55.4,73,29.89,10.0,South,9.2,-,N/A,,Clear,170,2013-04-07 04:55:00